     2              OBSERVATION DATA    GPS                 RINEX VERSION / TYPE
teqc 2000Feb29 Ken Austin CWU Geolo20000719 21:19:36UTC     PGM / RUN BY / DATE
                                                            COMMENT
teqc windowed: delta = 86400.000 sec                        COMMENT
teqc windowed: delta = 86400.000 sec                        COMMENT
teqc windowed: delta = 86400.000 sec                        COMMENT
teqc windowed: delta = 86400.000 sec                        COMMENT
teqc windowed: delta = 86400.000 sec                        COMMENT
teqc windowed: delta = 86400.000 sec                        COMMENT
teqc windowed: delta = 86400.000 sec                        COMMENT
teqc windowed: delta = 86400.000 sec                        COMMENT
teqc windowed: delta = 86400.000 sec                        COMMENT
teqc windowed: delta = 86400.000 sec                        COMMENT
teqc windowed: delta = 86400.000 sec                        COMMENT
teqc windowed: delta = 86400.000 sec                        COMMENT
teqc windowed: delta = 86400.000 sec                        COMMENT
teqc windowed: delta = 86400.000 sec                        COMMENT
teqc windowed: delta = 86400.000 sec                        COMMENT
teqc windowed: delta = 86400.000 sec                        COMMENT
teqc windowed: delta = 86400.000 sec                        COMMENT
Original Marker Name: ECHO 1963                             COMMENT
Campaign Name: CWU 2000 Post-Hector                         COMMENT
4-Character Station Name: ECHO                              COMMENT
6-Character Antenna Code: DMRCHT                            COMMENT
Vertical Measurement Point: BCR                             COMMENT
Vertical Offset to Rinex Ref. Point: 0.0348                 COMMENT
Radial Measurement Point: ECF                               COMMENT
Radial Offset to Rinex Ref. Point: 0.1897                   COMMENT
Antenna Height from Field Measurement: 0.9930 m             COMMENT
Additional Antenna Identification Info.:                    COMMENT
Turborogue and Ashtech Choke Ring                           COMMENT
Original XYZ: -2350488.9950 -4651977.2059 3665582.5833      COMMENT
New XYZ position is based on association with SCEC monument COMMENT
E1F2T1U2+0011. Position of that monument is believed to be  COMMENT
valid to within 1 m horizontally; vertical accuracy         COMMENT
should be no worse than 3-times this value.                 COMMENT
                                                            COMMENT
Revised Rinex header created by UCSD GPS archive for        COMMENT
GSAC on 11-Aug-2000 (2000:224) 18:52:52 GMT                 COMMENT
For assistance contact dagnew@ucsd.edu                      COMMENT
or anderson@python.ucsd.edu                                 COMMENT
                                                            COMMENT
ECHO 1963                                                   MARKER NAME
ECHO                                                        MARKER NUMBER
KA CENTRAL WASHINGTON UNIVERSITY                            OBSERVER / AGENCY
220190415 TRIMBLE 4700 NP 1.20; SP 0.00                     REC # / TYPE / VERS
138192 DORNE-MARGOL. TYPE T                                 ANT # / TYPE
 -2350488.3623 -4651976.6141  3665580.8727                  APPROX POSITION XYZ
        0.9399        0.0000        0.0000                  ANTENNA: DELTA H/E/N
     1     1     0                                          WAVELENGTH FACT L1/2
     9    L1    L2    C1    P2    P1    D1    D2    S1    S2# / TYPES OF OBSERV
    30                                                      INTERVAL
  2000     7     1     0     0   30.000000                  TIME OF FIRST OBS
  2000     7     1     0    13   60.000000                  TIME OF LAST OBS
                                                            END OF HEADER
 00  7  1  0  0 29.9740000  0  7G21G20G29G11G25G15G31
 -24554019.48849 -19119868.74847  13809461.5294   13809460.8694
      -965.3914       -752.2524         51.5004         38.7504
    -85955.09058    -54145.77756  17295901.1004   17295903.1544
      3179.9694       2477.8984         35.0004         13.7504
 -21156569.87149 -16467196.67948  13832230.7254   13832229.6084
     -1788.0004      -1393.2474         48.0004         39.5004
 -17703643.19149 -13774005.56047  13938483.3894   13938481.5414
      2249.2504       1752.6624         46.7504         38.0004
 -20615935.16849 -16055518.12048  13655013.5064   13655011.7484
      2409.2034       1877.3014         52.2504         42.7504
 -26179568.93449 -20394372.65548  12747223.5924   12747221.7484
     -1778.2664      -1385.6624         53.0004         44.5004
  -3011486.23849  -2330781.02146  16793284.5374   16793290.2604
     -2267.3754      -1766.7864         42.0004         21.5004
 00  7  1  0  0 59.9740000  0  7G21G20G29G11G25G15G31
 -24524923.81649 -19097196.83847  13814998.5374   13814997.4444
      -974.8284       -759.6064         50.5004         38.7504
   -181380.02749   -128502.55146  17277742.2334   17277743.3384
      3181.3594       2478.9814         36.5004         16.2504
 -21102859.39849 -16425344.38448  13842452.1624   13842450.5694
     -1793.1724      -1397.2774         49.0004         39.7504
 -17770891.80549 -13826407.06847  13925686.1084   13925684.4014
      2233.5474       1740.4264         47.5004         38.5004
 -20688003.91849 -16111675.51548  13641299.0374   13641297.6044
      2394.9064       1866.1614         52.5004         42.7504
 -26125966.83649 -20352604.82948  12757423.7014   12757421.7094
     -1795.7664      -1399.2984         53.0004         44.7504
  -2943426.05949  -2277747.48346  16806235.9674   16806241.9324
     -2270.3914      -1769.1364         40.0004         21.5004
 00  7  1  0  1 29.9740000  0  7G21G20G29G11G25G15G31
 -24495536.33249 -19074297.54247  13820590.8654   13820589.5294
      -984.2664       -766.9604         51.7504         38.7504
   -276837.12148   -202884.45346  17259577.1784   17259578.5884
      3182.6094       2479.9554         35.5004         13.7504
 -21048985.68449 -16383364.89948  13852703.9984   13852702.2684
     -1798.2974      -1401.2704         50.0004         39.5004
 -17837660.66449 -13878434.72947  13912980.2174   13912978.5144
      2217.7344       1728.1054         46.5004         38.7504
 -20759633.25449 -16167490.50748  13627668.4834   13627666.7604
      2380.4844       1854.9234         53.0004         42.5004
 -26071834.98849 -20310424.21248  12767724.6004   12767722.5144
     -1813.0004      -1412.7274         51.7504         44.2504
  -2875270.19949  -2224639.44146  16819205.5454   16819211.2334
     -2273.3124      -1771.4124         40.0004         19.5004
 00  7  1  0  1 59.9740000  0  7G21G20G29G11G25G15G31
 -24465869.69949 -19051180.73047  13826235.9284   13826235.0884
      -993.6414       -774.2654         51.0004         39.2504
   -372339.90249   -277302.03546  17241403.0374   17241404.1354
      3183.9384       2480.9904         37.5004         17.2504
 -20994963.95749 -16341270.09348  13862984.1864   13862982.1084
     -1803.2814      -1405.1544         49.5004         39.5004
 -17903961.23449 -13930097.48347  13900363.8654   13900361.9944
      2202.1094       1715.9294         47.7504         39.0004
 -20830835.12949 -16222972.42148  13614119.0144   13614117.4204
      2366.1414       1843.7464         52.7504         42.7504
 -26017188.98849 -20267842.95648  12778123.3264   12778121.4204
     -1830.1724      -1426.1084         52.7504         44.0004
  -2807035.35249  -2171469.74546  16832190.9594   16832196.6744
     -2275.8754      -1773.4094         37.0004         19.5004
 00  7  1  0  2 29.9740000  0  7G21G20G29G11G25G15G31
 -24435913.24649 -19027838.07447  13831937.1004   13831935.2564
     -1003.4064       -781.8754         51.0004         38.5004
   -467876.94949   -351746.19546  17223222.4364   17223224.6234
      3185.2814       2482.0374         36.5004         16.7504
 -20940784.56649 -16299052.42447  13873293.9284   13873292.0374
     -1808.5944      -1409.2944         45.7504         38.7504
 -17969780.60549 -13981385.27147  13887839.2484   13887837.2334
      2185.8284       1703.2434         49.0004         39.0004
 -20901596.53549 -16278111.11148  13600653.6784   13600652.1124
      2351.2814       1832.1674         52.2504         43.2504
 -25962019.78149 -20224854.01048  12788621.8424   12788619.9014
     -1847.7504      -1439.8054         49.5004         44.0004
  -2738713.50449  -2118232.31046  16845192.7174   16845198.0534
     -2278.7814      -1775.6744         39.2504         19.2504
 00  7  1  0  2 59.9740000  0  7G21G20G29G11G25G15G31
 -24405665.68049 -19004268.57947  13837692.4444   13837691.2444
     -1013.1564       -789.4724         50.7504         38.7504
   -563447.55949   -426216.57446  17205035.6784   17205038.3074
      3186.0004       2482.5974         37.0004         16.7504
 -20886448.91849 -16256713.00147  13883634.1944   13883631.9014
     -1813.8914      -1413.4214         46.0004         39.2504
 -18035116.71149 -14032296.47847  13875405.9754   13875403.9084
      2169.7664       1690.7264         46.7504         38.7504
 -20971915.43449 -16332904.99548  13587272.4124   13587270.5844
      2336.5004       1820.6494         53.0004         42.7504
 -25906328.79749 -20181458.48348  12799219.4514   12799217.7484
     -1865.0624      -1453.2954         48.2504         44.0004
  -2670307.57049  -2064929.35846  16858209.9904   16858215.7134
     -2281.5474      -1777.8294         39.0004         20.0004
 00  7  1  0  3 29.9740000  0  7G21G20G29G11G25G15G31
 -24375123.38349 -18980469.41747  13843504.6864   13843503.1744
     -1022.8444       -797.0214         51.7504         38.7504
   -659048.41849   -500710.50046  17186843.4904   17186846.1274
      3187.3594       2483.6574         37.0004         12.5004
 -20831955.44949 -16214250.58248  13894003.9364   13894001.9444
     -1818.8594      -1417.2934         46.5004         39.5004
 -18099964.26649 -14082827.00147  13863065.4124   13863064.1434
      2153.5784       1678.1134         47.5004         39.0004
 -21041786.82049 -16387350.16848  13573976.3034   13573974.2404
      2321.7504       1809.1564         53.5004         43.0004
 -25850114.73049 -20137655.35748  12809916.7334   12809915.4594
     -1882.3124      -1466.7374         50.5004         44.0004
  -2601817.41049  -2011560.77646  16871243.6234   16871249.1624
     -2284.1874      -1779.8864         40.7504         20.2504
 00  7  1  0  3 59.9740000  0  7G21G20G29G11G25G15G31
 -24344292.68449 -18956445.53447  13849371.7334   13849370.5414
     -1032.3754       -804.4484         51.0004         38.5004
   -754685.34849   -575232.62946  17168644.3734   17168645.8694
      3188.7034       2484.7044         37.5004         14.7504
 -20777312.23449 -16171671.49347  13904402.0534   13904400.2764
     -1823.7664      -1421.1164         47.0004         39.2504
 -18164327.94949 -14132980.48048  13850817.6544   13850815.6624
      2137.4534       1665.5484         47.0004         39.5004
 -21111215.69549 -16441450.52448  13560764.4444   13560762.2644
      2307.0634       1797.7114         52.2504         43.5004
 -25793385.73849 -20093450.99948  12820712.0374   12820710.5414
     -1899.3594      -1480.0204         52.5004         43.5004
  -2533252.66849  -1958134.06046  16884290.7954   16884296.6974
     -2286.4064      -1781.6154         39.0004         20.7504
 00  7  1  0  4 29.9740000  0  7G21G20G29G11G25G15G31
 -24313165.46949 -18932190.58947  13855294.9284   13855293.6624
     -1042.4374       -812.2894         49.7504         38.5004
   -850350.73849   -649776.88746  17150439.1004   17150440.8114
      3189.4534       2485.2884         38.5004         15.5004
 -20722513.66449 -16128971.34047  13914829.8814   13914828.4674
     -1829.1414      -1425.3044         46.7504         39.2504
 -18228198.69949 -14182749.85348  13838663.6474   13838661.1974
      2120.8284       1652.5934         47.5004         39.5004
 -21180192.86749 -16495198.90448  13547638.3344   13547636.7294
      2291.7814       1785.8044         53.2504         43.2504
 -25736136.77749 -20048841.45648  12831606.0844   12831604.7054
     -1916.8754      -1493.6694         51.2504         43.5004
  -2464609.30949  -1904646.16446  16897353.9904   16897360.1234
     -2289.3284      -1783.8924         41.5004         21.2504
 00  7  1  0  4 59.9740000  0  7G21G20G29G11G25G15G31
 -24281746.30149 -18907708.16647  13861273.6234   13861272.4514
     -1052.2974       -819.9724         50.7504         38.5004
   -946049.41049   -724347.00446  17132228.6864   17132230.5654
      3190.3134       2485.9584         40.7504         19.5004
 -20667566.37149 -16086155.31448  13925285.7334   13925284.6744
     -1834.2974      -1429.3224         49.0004         39.5004
 -18291579.77049 -14232137.66148  13826602.2564   13826600.4514
      2104.3754       1639.7734         48.0004         39.7504
 -21248721.53549 -16548597.80548  13534597.7794   13534596.0064
      2276.6414       1774.0064         53.7504         43.5004
 -25678374.99649 -20003832.31448  12842598.1394   12842596.2334
     -1934.1094      -1507.0984         51.2504         43.2504
  -2395895.45749  -1851103.23946  16910430.3034   16910436.2684
     -2291.8124      -1785.8284         41.5004         20.2504
 00  7  1  0  5 29.9740000  0  7G21G20G29G11G25G15G31
 -24250031.60949 -18882995.44747  13867309.0924   13867308.1664
     -1061.7664       -827.3504         50.0004         39.0004
  -1041777.54349   -798940.14346  17114011.7564   17114014.2914
      3191.7194       2487.0544         41.2504         22.0004
 -20612468.33649 -16043221.82347  13935770.5534   13935769.0964
     -1838.8124      -1432.8414         49.0004         39.0004
 -18354465.70349 -14281139.64348  13814635.5534   13814633.5924
      2088.1884       1627.1594         47.5004         39.5004
 -21316797.18449 -16601643.70448  13521643.2334   13521641.5614
      2261.9064       1762.5244         53.5004         43.2504
 -25620098.67649 -19958422.25548  12853687.5764   12853685.7834
     -1950.8754      -1520.1624         50.5004         43.5004
  -2327110.41449  -1797504.93846  16923519.6154   16923525.7294
     -2293.6724      -1787.2774         40.2504         22.0004
 00  7  1  0  5 59.9740000  0  7G21G20G29G11G25G15G31
 -24218026.28149 -18858056.26747  13873399.0224   13873398.4944
     -1071.7504       -835.1304         50.0004         39.0004
  -1137540.14549   -873560.14346  17095789.1624   17095791.2214
      3192.6094       2487.7484         41.0004         22.2504
 -20557226.48449 -16000176.25947  13946282.8114   13946281.4204
     -1843.8754      -1436.7864         49.2504         38.5004
 -18416859.78549 -14329758.35748  13802762.2564   13802760.4284
      2071.5004       1614.1564         47.0004         39.7504
 -21384423.15249 -16654339.20248  13508774.3894   13508772.5534
      2246.6414       1750.6294         52.5004         43.2504
 -25561315.35949 -19912617.12348  12864873.6234   12864871.7254
     -1967.9844      -1533.4944         50.0004         43.5004
  -2258262.83649  -1743857.87346  16936621.2404   16936627.5494
     -2296.0944      -1789.1644         41.7504         22.0004
 00  7  1  0  6 29.9740000  0  7G21G20G29G11G25G15G31
 -24185721.55549 -18832883.78347  13879547.0064   13879546.0064
     -1081.6414       -842.8374         50.2504         38.7504
  -1233328.19949   -948199.98946  17077561.4834   17077563.2374
      3193.5164       2488.4544         41.7504         22.5004
 -20501833.96949 -15957013.28547  13956823.7484   13956821.8384
     -1848.7814      -1440.6094         49.5004         38.5004
 -18478752.00849 -14377986.01347  13790984.6784   13790982.7994
      2054.7974       1601.1404         48.5004         39.2504
 -21451589.14149 -16706676.27848  13495993.1314   13495991.2134
      2231.3444       1738.7094         53.5004         43.5004
 -25502018.46949 -19866411.79748  12876157.1784   12876155.8224
     -1984.9694      -1546.7294         50.5004         43.5004
  -2189347.48449  -1690157.92646  16949734.9834   16949741.5764
     -2298.1254      -1790.7474         40.7504         21.2504
 00  7  1  0  6 59.9740000  0  7G21G20G29G11G25G15G31
 -24153118.84849 -18807479.09247  13885750.9674   13885749.9674
     -1091.6874       -850.6664         49.7504         38.5004
  -1329143.21949  -1022860.85746  17059328.2334   17059329.8304
      3194.3754       2489.1234         41.7504         21.2504
 -20446294.38749 -15913735.72447  13967392.3584   13967391.0494
     -1853.6414      -1444.3954         49.0004         38.7504
 -18540142.78149 -14425822.93248  13779302.2094   13779300.3814
      2038.0004       1588.0524         48.5004         40.0004
 -21518295.85249 -16758655.47648  13483298.8974   13483297.3854
      2215.9694       1726.7294         53.2504         43.5004
 -25442211.99649 -19819809.39048  12887538.2174   12887536.9944
     -2001.8914      -1559.9154         51.5004         43.7504
  -2120369.22349  -1636409.03746  16962860.2644   16962868.4754
     -2300.1254      -1792.3054         40.5004         21.5004
 00  7  1  0  7 29.9740000  0  7G21G20G29G11G25G15G31
 -24120219.41049 -18781843.19647  13892011.4364   13892010.5844
     -1101.5784       -858.3734         49.7504         38.0004
  -1424986.55949  -1097543.78146  17041088.9904   17041091.3304
      3195.2034       2489.7694         38.7504         21.0004
 -20390610.85549 -15870345.97347  13977988.6544   13977986.8934
     -1858.4844      -1448.1704         47.2504         37.2504
 -18601031.74649 -14473268.82947  13767715.5224   13767713.6974
      2021.2504       1575.0004         48.5004         39.2504
 -21584543.40649 -16810276.89948  13470692.8814   13470691.2874
      2200.5944       1714.7484         53.0004         43.7504
 -25381899.83249 -19772812.94548  12899015.3814   12899014.1664
     -2018.8124      -1573.1014         50.0004         43.7504
  -2051332.72349  -1582614.79246  16975999.0374   16976005.7604
     -2302.1094      -1793.8514         42.0004         20.7504
 00  7  1  0  7 59.9740000  0  7G21G20G29G11G25G15G31
 -24087021.49249 -18755974.72047  13898328.8194   13898327.8384
     -1111.4844       -866.0924         49.5004         38.2504
  -1520856.51249  -1172247.45946  17022845.9364   17022847.1234
      3196.1564       2490.5114         40.0004         22.5004
 -20334783.68749 -15826844.32447  13988612.3344   13988610.3774
     -1863.3124      -1451.9324         46.2504         38.7504
 -18661415.67249 -14520321.18648  13756225.1154   13756223.0534
      2004.4694       1561.9244         48.5004         39.5004
 -21650328.63749 -16861538.06748  13458174.3114   13458172.8774
      2185.2814       1702.8174         52.7504         43.5004
 -25321082.51249 -19725422.88248  12910588.4514   12910586.8424
     -2035.5784      -1586.1654         49.2504         43.2504
  -1982239.64549  -1528776.37346  16989147.4364   16989154.4164
     -2304.0474      -1795.3614         41.5004         22.5004
 00  7  1  0  8 29.9740000  0  7G21G20G29G11G25G15G31
 -24053517.91449 -18729868.07047  13904704.2484   13904703.6824
     -1121.4844       -873.8844         48.0004         38.5004
  -1616746.03149  -1246966.45446  17004598.8894   17004599.9244
      3196.8914       2491.0844         38.0004         21.5004
 -20278807.58249 -15783226.61047  13999264.6084   13999262.2484
     -1867.9374      -1455.5364         48.5004         39.0004
 -18721286.32849 -14566973.59948  13744831.7404   13744829.9164
      1987.5004       1548.7014         48.7504         39.5004
 -21715643.60249 -16912432.79448  13445745.1784   13445743.1084
      2169.7814       1690.7394         54.0004         43.5004
 -25259755.63749 -19677635.75748  12922258.7334   12922257.3654
     -2052.3284      -1599.2174         50.2504         43.5004
  -1913086.64849  -1474891.37746  17002306.4124   17002314.3194
     -2305.7664      -1796.7004         41.2504         22.2504
 00  7  1  0  8 59.9740000  0  7G21G20G29G11G25G15G31
 -24019716.81249 -18703529.58947  13911136.7404   13911135.4444
     -1131.7664       -881.8954         49.5004         38.0004
  -1712662.71949  -1321706.50046  16986345.8194   16986347.0724
      3197.5784       2491.6194         38.5004         20.2504
 -20222692.35249 -15739500.47647  14009943.3424   14009941.3504
     -1872.8754      -1459.3834         47.2504         38.2504
 -18780650.07849 -14613231.02447  13733535.2794   13733533.0884
      1970.2034       1535.2234         49.2504         39.0004
 -21780494.40249 -16962965.82748  13433404.4904   13433402.1974
      2153.8134       1678.2954         52.5004         44.0004
 -25197929.30149 -19629459.43748  12934023.7794   12934022.3974
     -2069.3124      -1612.4514         50.0004         43.5004
  -1843884.83649  -1420968.24146  17015475.3424   17015483.1784
     -2307.6094      -1798.1374         41.0004         22.0004
 00  7  1  0  9 29.9740000  0  8G21G20G30G29G11G25G15G31
 -23985616.59449 -18676958.02747  13917625.6154   13917624.4794
     -1141.4844       -889.4684         45.7504         37.5004
  -1808605.18449  -1396466.78046  16968088.5374   16968089.7954
      3198.6254       2492.4354         41.7504         21.5004
    -47019.92658    -33397.94556  17196607.4754   17196609.3154
      1881.2974       1465.9464         34.2504         12.5004
 -20166438.31249 -15695666.17747  14020647.4594   14020646.2484
     -1877.3284      -1462.8534         48.2504         38.0004
 -18839504.08249 -14659091.23747  13722335.9364   13722333.4324
      1953.4384       1522.1594         47.5004         39.0004
 -21844878.48049 -17013135.18748  13421152.7014   13421150.5184
      2138.4844       1666.3514         53.7504         43.7504
 -25135604.63349 -19580894.81448  12945883.7874   12945881.9944
     -2085.5944      -1625.1384         48.5004         43.0004
  -1774636.44149  -1367008.85346  17028654.1004   17028661.2794
     -2308.9694      -1799.1964         41.0004         21.7504
 00  7  1  0  9 59.9740000  0  8G21G20G30G29G11G25G15G31
 -23951223.71949 -18650158.42447  13924170.5844   13924169.2994
     -1151.1564       -897.0054         48.5004         38.0004
  -1904579.99649  -1471252.18946  16949824.8264   16949826.3624
      3199.8444       2493.3854         43.0004         22.5004
   -103293.73048    -77247.55946  17185897.8734   17185901.5104
      1870.6724       1457.6664         32.7504         17.7504
 -20110054.19149 -15651730.51847  14031377.1864   14031375.4474
     -1881.4374      -1466.0554         49.0004         38.0004
 -18897853.71549 -14704558.44748  13711232.3114   13711229.9044
      1936.7194       1509.1314         48.2504         39.5004
 -21908801.95749 -17062945.63748  13408988.1624   13408986.5184
      2123.2814       1654.5054         54.2504         43.7504
 -25072790.72349 -19531948.96748  12957837.0144   12957835.4164
     -2101.7664      -1637.7394         49.5004         43.0004
  -1705351.61349  -1313021.06846  17041838.6784   17041846.3894
     -2309.9534      -1799.9634         41.2504         22.0004
 00  7  1  0 10 29.9740000  0  8G21G20G30G29G11G25G15G31
 -23916537.14849 -18623129.96647  13930771.0064   13930769.9904
     -1161.3594       -904.9554         46.0004         38.5004
  -2000585.78149  -1546061.71846  16931555.5924   16931557.1544
      3200.5004       2493.8964         42.0004         22.5004
   -159251.36349   -120850.77246  17175249.5534   17175253.1664
      1859.7194       1449.1314         36.2504         18.2504
 -20053540.60949 -15607693.97747  14042131.4754   14042130.3974
     -1886.1724      -1469.7444         48.5004         37.5004
 -18955696.59449 -14749630.78747  13700224.8034   13700222.4324
      1919.4384       1495.6664         48.5004         39.2504
 -21972262.23049 -17112395.14548  13396912.1154   13396910.0534
      2107.3914       1642.1234         54.2504         44.5004
 -25009488.78949 -19482622.83948  12969883.1314   12969881.3934
     -2118.3914      -1650.6944         49.0004         42.7504
  -1636032.27749  -1259006.40446  17055029.7724   17055037.7444
     -2311.3754      -1801.0714         42.0004         21.2504
 00  7  1  0 10 59.9740000  0  8G21G20G30G29G11G25G15G31
 -23881553.10949 -18595869.71447  13937428.3974   13937427.5064
     -1170.9694       -912.4434         46.0004         38.2504
  -2096618.66449  -1620892.35146  16913280.1474   16913282.3304
      3201.7034       2494.8344         42.0004         22.7504
   -214886.87548   -164202.96446  17164663.1394   17164665.4284
      1849.2194       1440.9504         34.7504         18.5004
 -19996895.58649 -15563555.02447  14052910.4594   14052909.1944
     -1890.2504      -1472.9224         47.7504         38.5004
 -19013027.68049 -14794304.31047  13689314.6314   13689313.0884
      1902.6564       1482.5894         47.5004         39.2504
 -22035254.53549 -17161480.00148  13384925.2254   13384922.8344
      2092.0944       1630.2034         53.5004         44.0004
 -24945697.68049 -19432915.52348  12982022.1314   12982020.7954
     -2134.3284      -1663.1134         48.0004         43.2504
  -1566678.11749  -1204964.63046  17068227.3194   17068235.5804
     -2312.2974      -1801.7904         41.0004         20.7504
 00  7  1  0 11 29.9740000  0  8G21G20G30G29G11G25G15G31
 -23846277.65249 -18568382.40647  13944141.2254   13944140.1514
     -1180.8594       -920.1504         48.0004         38.5004
  -2192684.51649  -1695748.67146  16894999.9124   16895001.5964
      3202.6254       2495.5524         42.2504         22.7504
   -270204.53548   -207307.55746  17154136.0694   17154138.7874
      1838.7034       1432.7564         32.7504         18.5004
 -19940127.06249 -15519319.83247  14063713.2174   14063711.8194
     -1894.5004      -1476.2344         47.0004         38.7504
 -19069851.16449 -14838582.32348  13678502.0374   13678499.8544
      1885.5004       1469.2214         48.0004         39.5004
 -22097783.51649 -17210203.83848  13373026.2954   13373024.0574
      2076.4224       1617.9914         52.7504         44.2504
 -24881426.12549 -19382833.84848  12994252.6944   12994251.2174
     -2150.5624      -1675.7634         49.5004         43.0004
  -1497298.66849  -1150903.08046  17081430.1864   17081438.0924
     -2313.1724      -1802.4724         40.5004         21.2504
 00  7  1  0 11 59.9740000  0  8G21G20G30G29G11G25G15G31
 -23810701.55949 -18540660.81547  13950910.8734   13950910.5654
     -1190.9224       -927.9914         47.0004         38.0004
  -2288774.18049  -1770623.58546  16876714.5534   16876716.8154
      3203.3914       2496.1494         42.5004         24.2504
   -325192.83648   -250155.46146  17143672.0534   17143674.2794
      1827.2664       1423.8434         33.5004         17.2504
 -19883227.62149 -15474982.63547  14074541.1544   14074539.6704
     -1898.7974      -1479.5824         46.5004         39.2504
 -19126156.90249 -14882456.89047  13667787.4124   13667784.9674
      1868.1884       1455.7314         47.2504         39.2504
 -22159838.83249 -17258558.58348  13361217.4364   13361215.6704
      2060.5944       1605.6574         52.7504         44.5004
 -24816667.50849 -19332372.62748  13006576.1474   13006574.6044
     -2166.7194      -1688.3524         49.2504         43.0004
  -1427888.18749  -1096817.50046  17094639.4204   17094647.6274
     -2314.2194      -1803.2874         40.2504         20.5004
 00  7  1  0 12 29.9740000  0  8G21G20G30G29G11G25G15G31
 -23774827.98049 -18512707.44147  13957737.5294   13957736.6234
     -1200.7504       -935.6494         46.2504         38.0004
  -2384890.61349  -1845519.33746  16858425.1394   16858425.8384
      3204.1724       2496.7574         42.0004         25.2504
   -379853.04348   -292747.69546  17133270.2644   17133273.6044
      1816.3754       1415.3574         34.7504         16.7504
 -19826202.50849 -15430547.49447  14085392.5694   14085390.8344
     -1903.0784      -1482.9184         47.5004         37.7504
 -19181947.03149 -14925929.68148  13657170.4834   13657168.2604
      1851.0474       1442.3744         47.0004         39.7504
 -22221422.52349 -17306545.82448  13349498.5534   13349496.3154
      2044.8914       1593.4214         53.7504         44.2504
 -24751427.64149 -19281536.42248  13018990.8584   13018988.7524
     -2182.6874      -1700.7954         48.0004         43.5004
  -1358453.29349  -1042712.75946  17107853.5764   17107860.1904
     -2314.8284      -1803.7624         41.7504         20.5004
 00  7  1  0 12 59.9740000  0  8G21G20G30G29G11G25G15G31
 -23738654.90649 -18484520.67547  13964621.1084   13964620.3224
     -1211.0624       -943.6854         46.7504         37.5004
  -2481031.57449  -1920434.15746  16840129.0764   16840131.1194
      3204.9064       2497.3304         39.0004         21.7504
   -434180.64549   -335080.78546  17122932.2794   17122934.7174
      1805.1884       1406.6404         36.5004         17.2504
 -19769051.29749 -15386014.11147  14096267.9124   14096266.2954
     -1907.3754      -1486.2664         48.0004         38.2504
 -19237218.02749 -14968997.96448  13646652.8974   13646650.8504
      1833.4384       1428.6534         47.7504         40.0004
 -22282531.55549 -17354163.19048  13337869.7794   13337868.2294
      2028.8134       1580.8934         53.5004         44.0004
 -24685706.82449 -19230325.43548  13031496.7484   13031495.5724
     -2198.8914      -1713.4214         49.7504         42.7504
  -1288995.05549   -988589.80746  17121070.9124   17121078.6004
     -2315.9374      -1804.6274         41.0004         22.0004
 00  7  1  0 13 29.9740000  0  8G21G20G30G29G11G25G15G31
 -23702182.19549 -18456100.42747  13971561.6234   13971560.6974
     -1220.5944       -951.1124         47.5004         37.5004
  -2577196.63349  -1995367.73346  16821829.2404   16821831.2134
      3205.9694       2498.1574         41.5004         21.5004
   -488173.21148   -377152.81546  17112657.2174   17112660.7764
      1794.1884       1398.0684         35.7504         18.2504
 -19711775.24249 -15341383.44447  14107166.9904   14107165.5494
     -1911.1724      -1489.2254         48.2504         37.5004
 -19291968.40649 -15011660.56348  13636234.3264   13636232.2094
      1816.4064       1415.3814         47.7504         40.2504
 -22343164.73449 -17401409.77048  13326331.5764   13326329.5294
      2013.2344       1568.7544         54.0004         44.2504
 -24619507.39549 -19178741.52848  13044094.3114   13044092.8894
     -2214.5164      -1725.5974         49.2504         42.7504
  -1219516.44149   -934451.07546  17134291.5374   17134300.6704
     -2316.1094      -1804.7614         39.0004         21.0004
